Regional Weather Roundup
Issued by NWS

Home | Current Version | Previous Version | Graphics & Text | Print | Product List | Glossary On
Versions: 1 2 3 4 5 6 7 8 9 10 11 12 13 14 15 16 17 18 19 20 21 22 23 24 25 26 27 28 29 30 31 32 33 34 35 36 37 38 39 40 41 42 43 44 45 46 47 48 49 50
000
ASUS45 KBOU 111310
RWRCO

WEATHER ROUNDUP FOR COLORADO
NATIONAL WEATHER SERVICE DENVER/BOULDER CO
700 AM MDT FRI JUL 11 2014

NOTE: "FAIR" INDICATES FEW OR NO CLOUDS BELOW 12000 FEET WITH NO
SIGNIFICANT WEATHER AND/OR OBSTRUCTIONS TO VISIBILITY.

COZ001>005-013-030-031-111400-
...NORTHWEST COLORADO...

CITY           SKY/WX    TMP DP  RH WIND       PRES   REMARKS
CRAIG          PTSUNNY   57  55  93 E10       30.22S
HAYDEN         PTSUNNY   57  52  82 SE10      30.25S
MEEKER         PTSUNNY   60  54  80 E9        30.22S
MOUNT WERNER   NOT AVBL
STEAMBOAT SPGS PTSUNNY   54  53  95 SE6       30.28F
WALDEN         PTSUNNY   54  50  87 CALM      30.35R
$$

COZ006>008-011-111400-
...WEST CENTRAL VALLEYS...

CITY           SKY/WX    TMP DP  RH WIND       PRES   REMARKS
GRAND JUNCTION SUNNY     69  57  65 E5        30.11R
MONTROSE       SUNNY     64  55  72 SE7       30.21S
EAGLE          NOT AVBL
RIFLE          PTSUNNY   63  59  87 SE3       30.20R
DELTA          SUNNY     71  54  55 E9        30.17R
NUCLA          CLEAR     64  50  59 E8        30.23S
$$

COZ017>023-064>068-111400-
...SOUTHWEST COLORADO...

CITY           SKY/WX    TMP DP  RH WIND       PRES   REMARKS
DURANGO        PTSUNNY   58  52  80 N3        30.26R
CORTEZ         PTCLDY    63  54  72 CALM      30.20R
PAGOSA SPRINGS PTSUNNY   60  49  67 CALM      30.33R
TELLURIDE      PTSUNNY   57  48  72 SE6       30.42R
WOLF CREEK PAS NOT AVBL
$$

COZ009-010-012-014-032>034-037-058>063-111400-
...CENTRAL COLORADO...

CITY           SKY/WX    TMP DP  RH WIND       PRES   REMARKS
ASPEN          PTSUNNY   54  51  90 S3        30.36S
BUENA VISTA    MOSUNNY   59  47  65 NW6       30.36R
COPPER MTN     PTSUNNY   54  41  62 SW9G17    30.64R
BERTHOUD PASS  PTSUNNY   45  32  61 W20       30.66S
COTTONWOOD PAS MOSUNNY   61  43  51 SE3       30.48R
GUNNISON       SUNNY     54  46  76 CALM      30.39R
KREMMLING      PTSUNNY   55  52  88 NE3       30.35R
LEADVILLE      MOSUNNY   44  42  93 N6        30.49R
MONARCH PASS   SUNNY     48  39  71 W12       30.74R
SALIDA         MOSUNNY   57  47  71 CALM      30.40R
SUNLIGHT       MOSUNNY   50  48  93 E3        30.55S
WILKERSON PASS MOSUNNY   54  37  54 CALM      30.60S
$$

COZ069>075-111400-
...SAN LUIS VALLEY/SANGRE DE CRISTO MOUNTAINS...

CITY           SKY/WX    TMP DP  RH WIND       PRES   REMARKS
ALAMOSA        MOSUNNY   57  49  74 S3        30.31R
LA VETA PASS   SUNNY     52  45  76 SW3       30.49S
SAGUACHE       MOSUNNY   59  43  55 NW7       30.36
$$

COZ035-036-038>040-111400-
...NORTHERN COLORADO FRONT RANGE...

CITY           SKY/WX    TMP DP  RH WIND       PRES   REMARKS
DENVER INTL AP MOSUNNY   67  57  70 SE3       30.13S
DMNS CITY PARK   N/A     69  58  69 W2        30.13S
AURORA         MOSUNNY   66  58  73 S3        30.16S
FRONT RANGE AP NOT AVBL
ERIE MUNI ARPT MOSUNNY   65  59  79 CALM      30.13R
BOULDER MUN AP MOSUNNY   70  57  64 CALM      30.14R
CENTENNIAL     MOSUNNY   68  53  58 CALM      30.16F
BROOMFIELD     PTSUNNY   66  55  68 CALM      30.17R
FORT COLLINS   PTSUNNY   70  57  64 S3        30.13S
LONGMONT       PTSUNNY   69  60  72 CALM      30.14S
$$

COZ041-046-047-076>085-087-088-111400-
...PIKES PEAK/PALMER DIVIDE AND SOUTHERN FOOTHILLS...

CITY           SKY/WX    TMP DP  RH WIND       PRES   REMARKS
COLO. SPRINGS  MOSUNNY   71  51  49 N15G24    30.17R
A. F. ACADEMY  MOSUNNY   67  51  55 N12       30.20S
ELLICOTT       NOT AVBL
FALCON         MOSUNNY   68  50  53 N15G23    30.22S
FORT CARSON    MOSUNNY   71  51  48 NW6       30.15R
LIMON          SUNNY     65  58  78 NW9       30.12R
MONUMENT HILL  MOSUNNY   63  50  63 W7        30.24S
TRINIDAD       SUNNY     72  50  45 W13       30.15R
$$

COZ042>045-048>051-090-091-111400-
...NORTHEAST COLORADO...

CITY           SKY/WX    TMP DP  RH WIND       PRES   REMARKS
GREELEY ARPT   NOT AVBL
AKRON          CLOUDY    66  64  93 N3        30.08R FOG
BURLINGTON     SUNNY     68  55  63 W8        30.03R
WRAY           CLOUDY    70  67  91 NE12      30.00F
STERLING       PTSUNNY   70  64  83 N5        30.04S
HOLYOKE        CLOUDY    70  66  88 E12       30.01S
FORT MORGAN    PTSUNNY   66  58  75 CALM      30.09S
$$

COZ086-089-092>099-111400-
...SOUTHEAST COLORADO...

CITY           SKY/WX    TMP DP  RH WIND       PRES   REMARKS
PUEBLO         SUNNY     73  55  53 S3        30.07R
LA JUNTA       SUNNY     71  49  45 NW7G20    30.01R
LAMAR          SUNNY     79  48  33 S15       29.97R
SPRINGFIELD      N/A     73  50  44 S18G25    30.07R
$$


USA.gov is the U.S. government's official web portal to all federal, state and local government web resources and services.